Regional Weather Roundup
Issued by NWS

Home | Current Version | Previous Version | Graphics & Text | Print | Product List | Glossary On
Versions: 1 2 3 4 5 6 7 8 9 10 11 12 13 14 15 16 17 18 19 20 21 22 23 24 25 26 27 28 29 30 31 32 33 34 35 36 37 38 39 40 41 42 43 44 45 46 47 48 49 50
000
ASUS43 KFSD 190702
RWRSD

WEATHER ROUNDUP FOR SOUTH DAKOTA
NATIONAL WEATHER SERVICE SIOUX FALLS SD
200 AM CDT FRI SEP 19 2014

NOTE: "FAIR" INDICATES FEW OR NO CLOUDS BELOW 12,000 FEET WITH NO
SIGNIFICANT WEATHER AND/OR OBSTRUCTIONS TO VISIBILITY.


SDZ001>005-009-010-012>017-190800-
NORTHWEST AND NORTH CENTRAL SOUTH DAKOTA

CITY           SKY/WX    TMP DP  RH WIND       PRES   REMARKS
FAITH            N/A     67  64  90 NE10      29.69F
MOBRIDGE       LGT RAIN  66  62  87 S14       29.65F
$$

SDZ012>016-024>037-041>051-057-063-072>074-190800-
SOUTHWEST AND SOUTH CENTRAL SOUTH DAKOTA

CITY           SKY/WX    TMP DP  RH WIND       PRES   REMARKS
RAPID CTY ARPT CLOUDY    71  54  54 N21G29    29.76S
PIERRE         MOCLDY    64  60  87 SE14      29.68F
CUSTER         MOCLDY    65  47  52 CALM      29.91R
ELLSWORTH AFB  CLOUDY    72  55  54 N21       29.76R
PHILIP         CLOUDY    65  61  87 E7        29.66F
PINE RIDGE     CLEAR     67  61  81 S20G28    29.77S
WINNER         FAIR      68  62  81 S25G38    29.73F
$$

SDZ004>011-016>023-039-040-190800-
NORTHEAST SOUTH DAKOTA

CITY           SKY/WX    TMP DP  RH WIND       PRES   REMARKS
ABERDEEN       CLOUDY    65  58  78 S18G26    29.74F
WATERTOWN      CLOUDY    62  55  77 S18       29.82F
SISSETON         N/A     61  56  83 S10       29.77F
$$

SDZ017-020-022-023-036>040-048>070-190800-
SOUTHEAST SOUTH DAKOTA

CITY           SKY/WX    TMP DP  RH WIND       PRES   REMARKS
SIOUX FALLS    CLOUDY    62  55  77 S21G29    29.89F
HURON          CLOUDY    66  58  75 S15G28    29.77F
CHAMBERLAIN    MOCLDY    68  64  86 S15       29.75F
MITCHELL       CLOUDY    65  58  78 S18G28    29.82S
YANKTON        PTCLDY    61  55  82 SE15G23   29.88F
$$

ABBREVIATIONS USED IN REMARKS
   TC - TEMPERATURE IN CELSIUS
  WCI - WIND CHILL INDEX
   HX - HEAT INDEX
  VSB - VISIBILITY



USA.gov is the U.S. government's official web portal to all federal, state and local government web resources and services.